CW5709 Weather Reports


Display with metric or nautical units.
time (UTC)temp
F
wind
direction
speed
MPH
gust
MPH
rain 1hr
in
rain 24hr
in
rain mn
in
humidity
%
barometer
mb
20260831101536 58 0.0 0.0 0.00 0.00 0.00 76 1012.9
20260831100029 58 0.0 0.0 0.00 0.00 0.00 75 1013.2
20260831094513 58 0.0 0.0 0.00 0.00 0.00 73 1013.4
20260831093019 59 0.0 0.0 0.00 0.00 0.00 73 1013.5
20260831091536 59 0.0 0.0 0.00 0.00 0.00 72 1013.6
20260831090030 59 0.0 0.0 0.00 0.00 0.00 71 1013.7
20260831084534 60 0.0 0.0 0.00 0.00 0.00 70 1013.8
20260831083018 60 0.0 0.0 0.00 0.00 0.00 69 1013.9
20260831081524 61 0.0 0.0 0.00 0.00 0.00 68 1014.0
20260831080031 62 0.0 0.0 0.00 0.00 0.00 66 1014.2
20260831074532 63 0.0 0.0 0.00 0.00 0.00 65 1014.3
20260831073011 63 0.0 0.0 0.00 0.00 0.00 63 1014.3
20260831071516 64 0.0 0.0 0.00 0.00 0.00 62 1014.4
20260831070025 64 0.0 0.0 0.00 0.00 0.00 61 1014.5
20260831064505 65 0.0 0.0 0.00 0.00 0.00 60 1014.5
20260831063010 65 0.0 0.0 0.00 0.00 0.00 59 1014.7
20260831061517 65 0.0 0.0 0.00 0.00 0.00 58 1015.0
20260831060002 66 0.0 0.0 0.00 0.00 0.00 57 1015.1
20260831054509 65 0.0 0.0 0.00 0.00 0.00 57 1015.0
20260831053008 65 0.0 0.0 0.00 0.00 0.00 58 1015.1
20260831051513 64 0.0 0.0 0.00 0.00 0.00 60 1015.3
20260831050021 65 0.0 0.0 0.00 0.00 0.00 61 1015.5
20260831044504 66 0.0 0.0 0.00 0.00 0.00 59 1015.4
20260831043006 67 0.0 0.0 0.00 0.00 0.00 56 1015.4
20260831041510 68 0.0 0.0 0.00 0.00 0.00 55 1015.4
20260831040031 69 0.0 0.0 0.00 0.00 0.00 52 1015.3
20260831034523 70 0.0 0.0 0.00 0.00 0.00 49 1015.2
20260831033004 70 0.0 0.0 0.00 0.00 0.00 48 1015.1
20260831031508 71 0.0 0.0 0.00 0.00 0.00 47 1015.1
20260831030012 72 0.0 0.0 0.00 0.00 0.00 46 1015.1
20260831024516 72 0.0 0.0 0.00 0.00 0.00 45 1015.2
20260831023024 73 0.0 0.0 0.00 0.00 0.00 43 1015.2
20260831021504 73 0.0 0.0 0.00 0.00 0.00 42 1015.2
20260831020010 74 0.0 0.0 0.00 0.00 0.00 41 1015.2
20260831014513 74 0.0 0.0 0.00 0.00 0.00 40 1015.2
20260831013021 75 0.0 0.0 0.00 0.00 0.00 40 1015.3
20260831011534 75 0.0 0.0 0.00 0.00 0.00 39 1015.3
20260831010012 75 0.0 0.0 0.00 0.00 0.00 38 1015.5
20260831004512 75 0.0 0.0 0.00 0.00 0.00 37 1015.7
20260831003020 75 0.0 0.0 0.00 0.00 0.00 35 1016.0
20260831001526 76 0.0 0.0 0.00 0.00 0.00 34 1016.1
20260831000030 76 0.0 0.0 0.00 0.00 0.00 34 1016.2
20260830234510 76 0.0 0.0 0.00 0.00 0.00 33 1016.4
20260830233014 76 0.0 0.0 0.00 0.00 0.00 33 1016.7
20260830231524 76 0.0 0.0 0.00 0.00 0.00 31 1016.9
20260830230039 77 0.0 0.0 0.00 0.00 0.00 30 1017.1
20260830224530 77 0.0 0.0 0.00 0.00 0.00 30 1017.4
20260830223012 78 0.0 0.0 0.00 0.00 0.00 30 1017.5
20260830221521 78 0.0 0.0 0.00 0.00 0.00 31 1017.7
20260830220027 78 0.0 0.0 0.00 0.00 0.00 31 1018.1
20260830214504 78 0.0 0.0 0.00 0.00 0.00 30 1018.3
20260830213008 77 0.0 0.0 0.00 0.00 0.00 32 1018.5
20260830211519 76 0.0 0.0 0.00 0.00 0.00 32 1018.7
20260830210022 77 0.0 0.0 0.00 0.00 0.00 32 1018.8
20260830204526 77 0.0 0.0 0.00 0.00 0.00 34 1018.9
20260830203008 76 0.0 0.0 0.00 0.00 0.00 36 1019.1
20260830201518 74 0.0 0.0 0.00 0.00 0.00 38 1019.2
20260830200020 73 0.0 0.0 0.00 0.00 0.00 40 1019.3
20260830194527 72 0.0 0.0 0.00 0.00 0.00 41 1019.6
20260830193037 71 0.0 0.0 0.00 0.00 0.00 44 1020.0
20260830191514 69 0.0 0.0 0.00 0.00 0.00 46 1020.2
20260830190016 68 0.0 0.0 0.00 0.00 0.00 48 1020.2
20260830184522 67 0.0 0.0 0.00 0.00 0.00 49 1020.3
20260830183028 66 0.0 0.0 0.00 0.00 0.00 51 1020.6
20260830181532 65 0.0 0.0 0.00 0.00 0.00 53 1020.6
20260830180021 64 0.0 0.0 0.00 0.00 0.00 55 1020.7
20260830174521 63 0.0 0.0 0.00 0.00 0.00 57 1020.7
20260830173039 62 0.0 0.0 0.00 0.00 0.00 61 1020.6
20260830171530 61 0.0 0.0 0.00 0.00 0.00 67 1020.7
20260830170034 59 0.0 0.0 0.00 0.00 0.00 69 1020.8
20260830164516 59 0.0 0.0 0.00 0.00 0.00 72 1020.7
20260830163024 57 0.0 0.0 0.00 0.00 0.00 75 1020.9
20260830161528 56 0.0 0.0 0.00 0.00 0.00 82 1021.0
20260830160030 54 0.0 0.0 0.00 0.00 0.00 83 1021.2
20260830154534 53 0.0 0.0 0.00 0.00 0.00 88 1021.3
20260830153020 51 0.0 0.0 0.00 0.00 0.00 89 1021.3
20260830151524 49 0.0 0.0 0.00 0.00 0.00 90 1021.2
20260830150036 48 0.0 0.0 0.00 0.00 0.00 89 1021.3
20260830144534 47 0.0 0.0 0.00 0.00 0.00 88 1021.3
20260830143037 47 0.0 0.0 0.00 0.00 0.00 88 1021.2
20260830141537 47 0.0 0.0 0.00 0.00 0.00 87 1021.2
20260830140041 47 0.0 0.0 0.00 0.00 0.00 87 1021.3
20260830134534 47 0.0 0.0 0.00 0.00 0.00 86 1021.3
20260830133043 47 0.0 0.0 0.00 0.00 0.00 86 1021.1
20260830131532 47 0.0 0.0 0.00 0.00 0.00 86 1021.2
20260830130026 47 0.0 0.0 0.00 0.00 0.00 85 1021.0
20260830124505 48 0.0 0.0 0.00 0.00 0.00 85 1020.9
20260830123021 48 0.0 0.0 0.00 0.00 0.00 85 1020.8
20260830121518 48 0.0 0.0 0.00 0.00 0.00 85 1020.8
20260830120025 49 0.0 0.0 0.00 0.00 0.00 85 1020.7
20260830114551 49 0.0 0.0 0.00 0.00 0.00 85 1020.6
20260830113006 49 0.0 0.0 0.00 0.00 0.00 85 1020.5
20260830111514 49 0.0 0.0 0.00 0.00 0.00 85 1020.6
20260830110021 49 0.0 0.0 0.00 0.00 0.00 84 1020.6
20260830104533 49 0.0 0.0 0.00 0.00 0.00 83 1020.8
20260830103032 50 0.0 0.0 0.00 0.00 0.00 83 1020.8